Weather History for Fes-Sais, Morocco

Change the Weather History Date:

Wednesday, May 22, 2013

  Actual Average Record
Temperature  
Mean Temperature 54 °F -  
Max Temperature 69 °F 83 °F 95 °F (2003)
Min Temperature 39 °F 56 °F 39 °F (2012)
Degree Days  
Heating Degree Days 11    
Growing Degree Days 4 (Base 50)    
Moisture  
Dew Point 41 °F    
Average Humidity 57    
Maximum Humidity 82    
Minimum Humidity 22    
Precipitation  
Precipitation 0.00 in 0.04 in - ()
Sea Level Pressure  
Sea Level Pressure 30.13 in    
Wind  
Wind Speed 5 mph ()    
Max Wind Speed 9 mph    
Max Gust Speed -    
Visibility 6.1 miles    
Events      
Averages and records for this station are not official NWS values.
T = Trace of Precipitation, MM = Missing Value Source: Averaged Metar Reports

Daily Weather History Graph

Daily Weather History Graph

Search for Another Location

Airport:

Trip Planner

Search our weather history database for the weather conditions in past years. The results will help you decide how hot, cold, wet, or windy it might be!

Date:

Astronomy

May. 22, 2013 Rise Set
Actual Time 6:14 AM WEST 8:19 PM WEST
Civil Twilight 5:46 AM WEST 8:47 PM WEST
Nautical Twilight 5:11 AM WEST 9:21 PM WEST
Astronomical Twilight 4:35 AM WEST 9:58 PM WEST
Moon 5:31 PM WEST (5/22) 4:00 AM WEST (5/22)
Length of Visible Light 15h 01m
Length of Day
14h 05m
Waxing Gibbous, 90% of the Moon is Illuminated
May 22
Waxing Gibbous
May 25
Full
May 31
Last Quarter
Jun 8
New
Jun 16
First Quarter

Hourly Weather History & Observations

Time (WEST) Temp. Windchill Dew Point Humidity Pressure Visibility Wind Dir Wind Speed Gust Speed Precip Events Conditions
12:00 AM 46.4 °F 42.9 °F 39.2 °F 76% 30.18 in 6.2 mi South 6.9 mph - N/A   Mostly Cloudy
1:00 AM 45 °F - 39 °F 71% 30.21 in 6 mi South 6.9 mph - -   Partly Cloudy
1:00 AM 44.6 °F 40.7 °F 39.2 °F 81% 30.15 in 6.2 mi South 6.9 mph - N/A   Scattered Clouds
2:00 AM 44.6 °F 40.7 °F 39.2 °F 81% 30.15 in 6.2 mi South 6.9 mph - N/A   Scattered Clouds
3:00 AM 44.6 °F 40.7 °F 39.2 °F 81% 30.12 in - SSE 6.9 mph - N/A   Clear
4:00 AM 41 °F - 35 °F 71% 30.19 in 6 mi South 6.9 mph - -   Partly Cloudy
4:00 AM 41.0 °F 36.4 °F 35.6 °F 81% 30.12 in 6.2 mi South 6.9 mph - N/A   Scattered Clouds
5:00 AM 41.0 °F 36.4 °F 35.6 °F 81% 30.12 in 6.2 mi South 6.9 mph - N/A   Scattered Clouds
6:00 AM 41.0 °F 36.4 °F 35.6 °F 81% 30.12 in 6.2 mi South 6.9 mph - N/A   Scattered Clouds
7:00 AM 41 °F - 35 °F 71% 30.20 in 6 mi South 6.9 mph - -  
7:00 AM 41.0 °F 36.4 °F 35.6 °F 81% 30.12 in - South 6.9 mph - N/A   Clear
8:00 AM 51.8 °F - 44.6 °F 76% 30.12 in - Variable 3.5 mph - N/A   Clear
9:00 AM 55.4 °F - 44.6 °F 67% 30.15 in - Variable 4.6 mph - N/A   Clear
10:00 AM 60 °F - 45 °F 48% 30.14 in 6 mi NE 4.6 mph - -  
10:00 AM 60.8 °F - 46.4 °F 59% 30.15 in - Variable 4.6 mph - N/A   Clear
11:00 AM 60.8 °F - 42.8 °F 52% 30.15 in 6.2 mi Variable 4.6 mph - N/A   Partly Cloudy
12:00 PM 62.6 °F - 41.0 °F 45% 30.15 in 6.2 mi Variable 4.6 mph - N/A   Partly Cloudy
1:00 PM 66 °F - 41 °F 29% 30.11 in 6 mi North 5.8 mph - -   Scattered Clouds
1:00 PM 66.2 °F - 41.0 °F 40% 30.15 in 6.2 mi Variable 4.6 mph - N/A   Partly Cloudy
2:00 PM 68.0 °F - 39.2 °F 35% 30.12 in 6.2 mi Variable 4.6 mph - N/A   Partly Cloudy
3:00 PM 68.0 °F - 39.2 °F 35% 30.09 in 6.2 mi North 8.1 mph - N/A   Partly Cloudy
4:00 PM 69 °F - 42 °F 26% 30.06 in 6 mi North 3.5 mph - -   Partly Cloudy
4:00 PM 69.8 °F - 42.8 °F 38% 30.09 in 6.2 mi North 3.5 mph - N/A   Scattered Clouds
5:00 PM 69.8 °F - 41.0 °F 35% 30.09 in 6.2 mi NNW 6.9 mph - N/A   Scattered Clouds
6:00 PM 69.8 °F - 39.2 °F 33% 30.09 in 6.2 mi WNW 6.9 mph - N/A   Scattered Clouds
7:00 PM 69 °F - 39 °F 22% 30.05 in 6 mi NW 5.8 mph - -   Scattered Clouds
7:00 PM 69.8 °F - 39.2 °F 33% 30.09 in 6.2 mi NW 5.8 mph - N/A   Partly Cloudy
8:00 PM 66.2 °F - 41.0 °F 40% 30.09 in 6.2 mi NNW 4.6 mph - N/A   Partly Cloudy
9:00 PM 62.6 °F - 41.0 °F 45% - 6.2 mi West 2.3 mph - N/A   Partly Cloudy
10:00 PM 58 °F - 49 °F 63% 30.12 in 6 mi West 4.6 mph - -  
10:00 PM 59.0 °F - 50.0 °F 72% 30.12 in - West 4.6 mph - N/A   Clear
11:00 PM 55.4 °F - 50.0 °F 82% 30.15 in - SSW 9.2 mph - N/A   Clear